Flag for U.S.A. Weather past 2 weeks in Dallas, Texas, U.S.A.

Now
80 °F

Passing clouds.


Feels Like: 83 °F
Forecast: 75 / 93 °F
Wind: 9 mph from South

Location: Dallas Love Field

Current Time: Sep 4, 2015 at 5:26:08 AM

Latest Report: Sep 4, 2015 at 4:53 AM


Visibility: 10 mi

Pressure: 29.88 "Hg

Humidity: 69%

Dew point: 69 °F

Location of DallasLocation

Historic Weather in Dallas — Graph

°F

Dallas temperature yesterday

Maximum temperature yesterday: 96 °F (at 3:53 PM)
Minimum temperature yesterday: 77 °F (at 5:53 AM)
Average temperature yesterday: 86 °F

Past Weeks' High & Low Weather Summary

 TemperatureHumidityPressure
High99 °F (Aug 24, 3:53 PM)93% (Aug 21, 4:53 AM)30.13 "Hg (Aug 21, 4:53 AM)
Low66 °F (Aug 20, 5:53 AM)21% (Aug 26, 3:53 PM)29.80 "Hg (Aug 22, 6:53 PM)
Average85 °F56%29.97 "Hg
* Reported Aug 20 3:53 AM — Sep 4 3:53 AM, Dallas, Weather by CustomWeather, © 2015

Note: Actual official high and low records may vary slightly from our data, if they occured in-between our weather recording intervals... More about our weather records

Advertising

Dallas weather history for previous 24 hours

 ConditionsComfort  
Time TempWeatherWind HumidityBarometerVisibility
3:53 AM
Fri, Sep 4
81 °FPassing clouds.9 mph67%29.88 "Hg10 mi
2:53 AM83 °FPassing clouds.14 mph63%29.87 "Hg10 mi
1:53 AM83 °FPassing clouds.12 mph61%29.87 "Hg10 mi
12:53 AM84 °FPassing clouds.12 mph59%29.86 "Hg10 mi
11:53 PM
Thu, Sep 3
85 °FPassing clouds.10 mph55%29.86 "Hg10 mi
10:53 PM86 °FPassing clouds.10 mph53%29.87 "Hg10 mi
9:53 PM87 °FPassing clouds.8 mph50%29.87 "Hg10 mi
8:53 PM87 °FPassing clouds.9 mph48%29.84 "Hg10 mi
7:53 PM89 °FPartly sunny.9 mph43%29.83 "Hg10 mi
6:53 PM91 °FScattered clouds.12 mph44%29.83 "Hg10 mi
5:53 PM94 °FScattered clouds.14 mph37%29.84 "Hg10 mi
4:53 PM94 °FScattered clouds.13 mph36%29.85 "Hg10 mi
3:53 PM96 °FScattered clouds.10 mph31%29.86 "Hg10 mi
2:53 PM92 °FScattered clouds.5 mph40%29.89 "Hg10 mi
1:53 PM93 °FScattered clouds.10 mph38%29.91 "Hg10 mi
12:53 PM91 °FPartly sunny.8 mph41%29.94 "Hg10 mi
11:53 AM89 °FPartly sunny.7 mph43%29.96 "Hg10 mi
10:53 AM86 °FPassing clouds.8 mph53%29.96 "Hg10 mi
9:53 AM82 °FPassing clouds.3 mph65%29.96 "Hg10 mi
8:53 AM78 °FPassing clouds.8 mph74%29.97 "Hg10 mi
7:53 AM77 °FPassing clouds.14 mph74%29.96 "Hg10 mi
6:53 AM77 °FPassing clouds.8 mph71%29.94 "Hg10 mi
5:53 AM77 °FClear.6 mph71%29.93 "Hg10 mi
Weather by CustomWeather, © 2015

See weather overviewHow to use our weather pages